Time,TemperatureF,DewpointF,PressureIn,WindDirection,WindDirectionDegrees,WindSpeedMPH,WindSpeedGustMPH,Humidity,HourlyPrecipIn,Conditions,Clouds,dailyrainin,SolarRadiationWatts/m^2,SoftwareType,DateUTC
2013-04-19 00:03:00,29.0,29.0,-100.00,North,6,10.0,24.0,98,0.00,,,0.11,0.000000,,2013-04-19 05:03:00,
2013-04-19 00:32:00,29.0,29.0,-100.00,NNE,12,10.0,21.0,98,0.00,,,0.11,0.000000,,2013-04-19 05:32:00,
2013-04-19 00:42:00,29.0,29.0,-100.00,NNE,12,10.0,21.0,98,0.00,,,0.11,0.000000,,2013-04-19 05:42:00,
2013-04-19 00:52:00,29.0,29.0,-100.00,NNE,12,10.0,21.0,98,0.00,,,0.11,0.000000,,2013-04-19 05:52:00,
2013-04-19 01:02:00,29.0,29.0,-100.00,NNE,12,10.0,21.0,98,0.00,,,0.11,0.000000,,2013-04-19 06:02:00,
2013-04-19 01:32:00,29.0,29.0,-100.00,North,6,11.0,20.0,98,0.00,,,0.11,0.000000,,2013-04-19 06:32:00,
2013-04-19 01:42:00,29.0,29.0,-100.00,North,6,11.0,20.0,98,0.00,,,0.11,0.000000,,2013-04-19 06:42:00,
2013-04-19 01:53:00,29.0,29.0,-100.00,North,6,11.0,20.0,98,0.00,,,0.11,0.000000,,2013-04-19 06:53:00,
2013-04-19 02:02:00,29.0,29.0,-100.00,North,6,11.0,20.0,98,0.00,,,0.11,0.000000,,2013-04-19 07:02:00,
2013-04-19 03:33:00,28.0,27.0,-100.00,North,7,11.0,24.0,97,-99.99,,,0.11,0.000000,,2013-04-19 08:33:00,
2013-04-19 03:42:00,28.0,27.0,-100.00,North,7,11.0,24.0,97,-99.99,,,0.11,0.000000,,2013-04-19 08:42:00,
2013-04-19 03:52:00,28.0,27.0,-100.00,North,7,11.0,24.0,97,-99.99,,,0.11,0.000000,,2013-04-19 08:52:00,
2013-04-19 04:01:00,28.0,27.0,-100.00,North,7,11.0,24.0,97,-99.99,,,0.11,0.000000,,2013-04-19 09:01:00,
2013-04-19 04:33:00,27.0,26.0,-100.00,North,9,14.0,24.0,97,0.00,,,0.11,0.000000,,2013-04-19 09:33:00,
2013-04-19 04:43:00,27.0,26.0,-100.00,North,9,14.0,24.0,97,0.00,,,0.11,0.000000,,2013-04-19 09:43:00,
2013-04-19 04:52:00,27.0,26.0,-100.00,North,9,14.0,24.0,97,0.00,,,0.11,0.000000,,2013-04-19 09:52:00,
2013-04-19 05:02:00,27.0,26.0,-100.00,North,9,14.0,24.0,97,0.00,,,0.11,0.000000,,2013-04-19 10:02:00,
2013-04-19 05:33:00,27.0,26.0,-100.00,NNE,12,12.0,25.0,96,0.00,,,0.11,0.000000,,2013-04-19 10:33:00,
2013-04-19 05:42:00,27.0,26.0,-100.00,NNE,12,12.0,25.0,96,0.00,,,0.11,0.000000,,2013-04-19 10:42:00,
2013-04-19 05:52:00,27.0,26.0,-100.00,NNE,12,12.0,25.0,96,0.00,,,0.11,0.000000,,2013-04-19 10:52:00,
2013-04-19 06:03:00,27.0,26.0,-100.00,NNE,12,12.0,25.0,96,0.00,,,0.11,0.000000,,2013-04-19 11:03:00,
2013-04-19 06:32:00,26.0,25.0,-100.00,North,5,12.0,22.0,96,0.00,,,0.11,0.000000,,2013-04-19 11:32:00,
2013-04-19 06:43:00,26.0,25.0,-100.00,North,5,12.0,22.0,96,0.00,,,0.11,0.000000,,2013-04-19 11:43:00,
2013-04-19 06:52:00,26.0,25.0,-100.00,North,5,12.0,22.0,96,0.00,,,0.11,0.000000,,2013-04-19 11:52:00,
2013-04-19 07:03:00,26.0,25.0,-100.00,North,5,12.0,22.0,96,0.00,,,0.11,0.000000,,2013-04-19 12:03:00,
2013-04-19 07:32:00,25.0,24.0,-100.00,North,8,10.0,28.0,95,0.00,,,0.11,13.000000,,2013-04-19 12:32:00,
2013-04-19 07:42:00,25.0,24.0,-100.00,North,8,10.0,28.0,95,0.00,,,0.11,13.000000,,2013-04-19 12:42:00,
2013-04-19 07:53:00,25.0,24.0,-100.00,North,8,10.0,28.0,95,0.00,,,0.11,13.000000,,2013-04-19 12:53:00,
2013-04-19 08:01:00,25.0,24.0,-100.00,North,8,10.0,28.0,95,0.00,,,0.11,13.000000,,2013-04-19 13:01:00,
2013-04-19 08:32:00,25.0,23.0,-100.00,NNE,13,11.0,23.0,93,0.00,,,0.11,92.000000,,2013-04-19 13:32:00,
2013-04-19 08:42:00,25.0,23.0,-100.00,NNE,13,11.0,23.0,93,0.00,,,0.11,92.000000,,2013-04-19 13:42:00,
2013-04-19 08:52:00,25.0,23.0,-100.00,NNE,13,11.0,23.0,93,0.00,,,0.11,92.000000,,2013-04-19 13:52:00,
2013-04-19 09:02:00,25.0,23.0,-100.00,NNE,13,11.0,23.0,93,0.00,,,0.11,92.000000,,2013-04-19 14:02:00,
2013-04-19 09:32:00,26.0,24.0,-100.00,North,7,12.0,26.0,93,0.00,,,0.11,209.000000,,2013-04-19 14:32:00,
2013-04-19 09:43:00,26.0,24.0,-100.00,North,7,12.0,26.0,93,0.00,,,0.11,209.000000,,2013-04-19 14:43:00,
2013-04-19 09:52:00,26.0,24.0,-100.00,North,7,12.0,26.0,93,0.00,,,0.11,209.000000,,2013-04-19 14:52:00,
2013-04-19 10:01:00,26.0,24.0,-100.00,North,7,12.0,26.0,93,0.00,,,0.11,209.000000,,2013-04-19 15:01:00,
2013-04-19 10:33:00,27.0,24.0,-100.00,North,5,14.0,32.0,90,0.00,,,0.11,381.000000,,2013-04-19 15:33:00,
2013-04-19 10:43:00,27.0,24.0,-100.00,North,5,14.0,32.0,90,0.00,,,0.11,381.000000,,2013-04-19 15:43:00,
2013-04-19 10:52:00,27.0,24.0,-100.00,North,5,14.0,32.0,90,0.00,,,0.11,381.000000,,2013-04-19 15:52:00,
2013-04-19 11:03:00,27.0,24.0,-100.00,North,5,14.0,32.0,90,0.00,,,0.11,381.000000,,2013-04-19 16:03:00,
2013-04-19 11:33:00,29.0,26.0,-100.00,North,0,14.0,33.0,87,0.04,,,0.15,549.000000,,2013-04-19 16:33:00,
2013-04-19 11:43:00,29.0,26.0,-100.00,North,0,14.0,33.0,87,0.04,,,0.15,549.000000,,2013-04-19 16:43:00,
2013-04-19 11:53:00,29.0,26.0,-100.00,North,0,14.0,33.0,87,0.04,,,0.15,549.000000,,2013-04-19 16:53:00,
2013-04-19 12:02:00,29.0,26.0,-100.00,North,0,14.0,33.0,87,0.04,,,0.15,549.000000,,2013-04-19 17:02:00,
2013-04-19 12:33:00,30.0,27.0,-100.00,North,356,12.0,29.0,87,0.06,,,0.19,779.000000,,2013-04-19 17:33:00,
2013-04-19 12:43:00,30.0,27.0,-100.00,North,356,12.0,29.0,87,0.06,,,0.19,779.000000,,2013-04-19 17:43:00,
2013-04-19 12:52:00,30.0,27.0,-100.00,North,356,12.0,29.0,87,0.06,,,0.19,779.000000,,2013-04-19 17:52:00,
2013-04-19 13:02:00,30.0,27.0,-100.00,North,356,12.0,29.0,87,0.06,,,0.19,779.000000,,2013-04-19 18:02:00,
2013-04-19 13:33:00,31.0,27.0,-100.00,North,358,10.0,32.0,85,0.03,,,0.18,608.000000,,2013-04-19 18:33:00,
2013-04-19 13:43:00,31.0,27.0,-100.00,North,358,10.0,32.0,85,0.03,,,0.18,608.000000,,2013-04-19 18:43:00,
2013-04-19 13:52:00,31.0,27.0,-100.00,North,358,10.0,32.0,85,0.03,,,0.18,608.000000,,2013-04-19 18:52:00,
2013-04-19 14:02:00,31.0,27.0,-100.00,North,358,10.0,32.0,85,0.03,,,0.18,608.000000,,2013-04-19 19:02:00,
2013-04-19 14:32:00,32.0,26.0,-100.00,North,9,11.0,27.0,77,0.05,,,0.20,700.000000,,2013-04-19 19:32:00,
2013-04-19 14:42:00,32.0,26.0,-100.00,North,9,11.0,27.0,77,0.05,,,0.20,700.000000,,2013-04-19 19:42:00,
2013-04-19 14:52:00,32.0,26.0,-100.00,North,9,11.0,27.0,77,0.05,,,0.20,700.000000,,2013-04-19 19:52:00,
2013-04-19 15:02:00,32.0,26.0,-100.00,North,9,11.0,27.0,77,0.05,,,0.20,700.000000,,2013-04-19 20:02:00,
2013-04-19 15:32:00,34.0,22.0,-100.00,NNE,16,13.0,26.0,62,0.03,,,0.22,762.000000,,2013-04-19 20:32:00,
2013-04-19 15:42:00,34.0,22.0,-100.00,NNE,16,13.0,26.0,62,0.03,,,0.22,762.000000,,2013-04-19 20:42:00,
2013-04-19 15:52:00,34.0,22.0,-100.00,NNE,16,13.0,26.0,62,0.03,,,0.22,762.000000,,2013-04-19 20:52:00,
2013-04-19 16:01:00,34.0,22.0,-100.00,NNE,16,13.0,26.0,62,0.03,,,0.22,762.000000,,2013-04-19 21:01:00,
2013-04-19 17:33:00,36.0,8.0,-100.00,North,358,10.0,23.0,31,-99.99,,,-99.99,469.000000,,2013-04-19 22:33:00,
2013-04-19 17:42:00,36.0,8.0,-100.00,North,358,10.0,23.0,31,-99.99,,,-99.99,469.000000,,2013-04-19 22:42:00,
2013-04-19 17:52:00,36.0,8.0,-100.00,North,358,10.0,23.0,31,-99.99,,,-99.99,469.000000,,2013-04-19 22:52:00,
2013-04-19 18:03:00,36.0,8.0,-100.00,North,358,10.0,23.0,31,-99.99,,,-99.99,469.000000,,2013-04-19 23:03:00,
2013-04-19 18:32:00,37.0,6.0,-100.00,North,5,10.0,23.0,27,0.00,,,0.21,407.000000,,2013-04-19 23:32:00,
2013-04-19 18:42:00,37.0,6.0,-100.00,North,5,10.0,23.0,27,0.00,,,0.21,407.000000,,2013-04-19 23:42:00,
2013-04-19 18:52:00,37.0,6.0,-100.00,North,5,10.0,23.0,27,0.00,,,0.21,407.000000,,2013-04-19 23:52:00,
2013-04-19 19:02:00,37.0,6.0,-100.00,North,5,10.0,23.0,27,0.00,,,0.21,407.000000,,2013-04-20 00:02:00,
2013-04-19 20:32:00,30.0,-1.0,-100.00,North,356,5.0,18.0,26,-99.99,,,0.21,39.000000,,2013-04-20 01:32:00,
2013-04-19 20:42:00,30.0,-1.0,-100.00,North,356,5.0,18.0,26,-99.99,,,0.21,39.000000,,2013-04-20 01:42:00,
2013-04-19 20:52:00,30.0,-1.0,-100.00,North,356,5.0,18.0,26,-99.99,,,0.21,39.000000,,2013-04-20 01:52:00,
2013-04-19 21:01:00,30.0,-1.0,-100.00,North,356,5.0,18.0,26,-99.99,,,0.21,39.000000,,2013-04-20 02:01:00,
2013-04-19 21:32:00,28.0,5.0,-100.00,NW,323,3.0,11.0,37,0.00,,,0.21,2.000000,,2013-04-20 02:32:00,
2013-04-19 21:42:00,28.0,5.0,-100.00,NW,323,3.0,11.0,37,0.00,,,0.21,2.000000,,2013-04-20 02:42:00,
2013-04-19 21:52:00,28.0,5.0,-100.00,NW,323,3.0,11.0,37,0.00,,,0.21,2.000000,,2013-04-20 02:52:00,
2013-04-19 22:01:00,28.0,5.0,-100.00,NW,323,3.0,11.0,37,0.00,,,0.21,2.000000,,2013-04-20 03:01:00,
2013-04-19 22:33:00,26.0,4.0,-100.00,NNW,328,4.0,11.0,39,0.00,,,0.21,0.000000,,2013-04-20 03:33:00,
2013-04-19 22:43:00,26.0,4.0,-100.00,NNW,328,4.0,11.0,39,0.00,,,0.21,0.000000,,2013-04-20 03:43:00,
2013-04-19 22:53:00,26.0,4.0,-100.00,NNW,328,4.0,11.0,39,0.00,,,0.21,0.000000,,2013-04-20 03:53:00,
2013-04-19 23:03:00,26.0,4.0,-100.00,NNW,328,4.0,11.0,39,0.00,,,0.21,0.000000,,2013-04-20 04:03:00,
2013-04-19 23:33:00,25.0,4.0,-100.00,NNW,346,3.0,7.0,39,0.00,,,0.21,0.000000,,2013-04-20 04:33:00,
2013-04-19 23:43:00,25.0,4.0,-100.00,NNW,346,3.0,7.0,39,0.00,,,0.21,0.000000,,2013-04-20 04:43:00,
2013-04-19 23:53:00,25.0,4.0,-100.00,NNW,346,3.0,7.0,39,0.00,,,0.21,0.000000,,2013-04-20 04:53:00,